OBJECT F, 64626

Orbit data source: Space-Track

You're viewing an Uncataloged Satellite

Recently launched and/or uncataloged satellites may have evolving metadata. Metadata may include but not limited to: Owner, Maufacturer, Bus, Motor, and Mission.

OBJECT F, 64626 is a satellite owned by Rocket Lab (US) in SSO that was launched on Thu, 26 Jun 2025 UTC launched from the Rocket Lab Launch Complex (RLLC). Unknown objects in Earth's orbit typically refer to objects detected orbiting the Earth but have not yet been identified or cataloged. These objects could be anything from previously untracked satellites, spent rocket stages, debris from satellite collisions, or even natural meteoroids temporarily captured by Earth's gravity.

Loading next visibility...
Identifier
64626, 2025-137F
Orbit
SSO
Last TLE update
20 hours ago
Origin
Flag of USRLABN (US)
Manufacturer
Rocket Lab
Mission
Spacecraft
Bus & Motor
ELECTRON ST2, Unknown motor
Mass
250 kg wet, ~250 kg dry
Launch date (UTC)
2025-06-26 (5 days ago)
Launch vehicle
Unknown
Launch site
Rocket Lab Launch Complex (RLLC)
Object type
Unknown
Shape & HBR
Unknown
Radar Cross Section
RCS unknown

Expand to show TLE details & history

TLE from 20 hours ago
0 OBJECT F
1 64626U 25138F   25181.60997256  .03297959  24869-5  12609-2 0  9992
2 64626  97.4237 186.5515 0179629  21.1293 339.7765 15.96552279   608
Epoch: 2025-06-30T14:38Z
TLE epoch observation values (Epoch: 2025-06-30T14:38:21.629Z)
Latitude
0.04997°
Longitude
48.03759°
Altitude
175.123 km
Speed
7.866 km/s
True Right ascension
12h 26m 10s
True Declination
0° 02' 59"
Sunlit
Object was in daylight at epoch
Visualization orbit readout
Latitude
61.06483°
Longitude
-117.47814°
Altitude
296.598 km
Speed
7.726 km/s
Apparent Right ascension
07h 31m 41s
Apparent Declination
26° 04' 32"
Sunlit
Object is in daylight
Visualization observer readout
Local Sidereal Time
22:17:02
Azimuth
37.618° NE
Elevation
-13.604°
Doppler factor
1
Orbital elements
Apogee altitude
400.471 km
Perigee altitude
161.242 km
Semi-major axis
6,658.993 km
Eccentricity
0.01796
Inclination
97.4237°
RAAN
186.5515°
Arg. of periapsis
21.1293°
True anomaly
Unknown
Mean anomaly
339.7765°
Eccentric anomaly
Unknown
Mean motion
3.9942 °/min
Orbital period
90.13 mins
BSTAR
0.0012609
Loading maneuver chart data...
Loading SW <> Apogee altitude chart data...
Loading historical data...
Loading historical data...
Loading historical data...
Loading historical data...
Loading historical data...
Loading historical data...
Loading historical data...
Other satellites on launch #137 in the year 2025 (2025-06-26 UTC)

OBJECT F Visibility forecast

Observer location: undefined°, undefined°

Span
Click to sort rows by Start time (UTC) header in descending order
Start Az.
Max El. time (UTC)
Max El. Az.
Max El.
End time (UTC)
End Az.
4 mins2025-07-01 13:41:33.681Z343.654° N2025-07-01 13:43:33.681Z284.925° WNW23.939°2025-07-01 13:45:33.681Z228.877° WSW
|